{"data":{"norad_id":62400,"epoch":"2026-09-22T00:06:05.333760Z","epoch_age_seconds":182241,"freshness":"STALE","line1":"1 62400U 24247Z   26265.00422840  .00005950  00000+0  20548-3 0  9992","line2":"2 62400  44.9954 121.7169 0001067  53.8537 306.2446 15.30889566 97799","mean_motion":15.30889566,"eccentricity":0.0001067,"inclination_deg":44.9954,"raan_deg":121.7169,"arg_perigee_deg":53.8537,"mean_anomaly_deg":306.2446,"bstar":0.00020548,"rev_number":9779,"period_min":94.062957379905,"perigee_km":472.42588945658,"apogee_km":473.88795557965,"semimajor_km":6851.2939225181,"source":"CELESTRAK","updated_at":"2026-09-23T09:00:21.396206Z"}}